Station Historical Data
Daily Summary for September 28, 2017 Units:  Metric    English   Both
« Previous Day
Next Day »
Daily Weekly Monthly Yearly Custom
  High: Low: Average:
Temperature: 16.8 °C 10.9 °C 14.9 °C
Dew Point: 10.6 °C 6.6 °C 8.5 °C
Humidity: 75% 55% 66%
Wind Speed: 11.3km/h 0km/h 3.4km/h
Wind Gust: 19.3km/h - -
Wind- - WNW
Pressure: 1018.5 hPa 1013.8 hPa -
Precipitation: 0 mm    
Historical Graphs
 
 
Tabular Data for September 28, 2017
Time Temperature Dew Point Pressure Wind Wind Speed Wind Gust Humidity Rainfall Rate (Hourly)
00:04 16.4 °C 10.5 °C 1013.8 hPa NW 3.2 km/h 12.9 km/h 68% 0 mm
00:09 16.3 °C 10.3 °C 1013.8 hPa NW 1.6 km/h 8 km/h 68% 0 mm
00:14 16.2 °C 10.3 °C 1013.8 hPa NW 1.6 km/h 8 km/h 68% 0 mm
00:19 16.1 °C 10.4 °C 1013.8 hPa WNW 1.6 km/h 6.4 km/h 69% 0 mm
00:24 15.9 °C 10.3 °C 1013.8 hPa Calm     69% 0 mm
00:29 15.8 °C 10.4 °C 1013.8 hPa Calm   4.8 km/h 70% 0 mm
00:34 15.8 °C 10.3 °C 1013.8 hPa WNW 1.6 km/h 9.7 km/h 70% 0 mm
00:39 15.7 °C 10.3 °C 1014.1 hPa WNW 3.2 km/h 9.7 km/h 70% 0 mm
00:44 15.7 °C 10.5 °C 1014.1 hPa WNW 3.2 km/h 6.4 km/h 71% 0 mm
00:49 15.6 °C 10.4 °C 1014.1 hPa WNW 3.2 km/h 6.4 km/h 71% 0 mm
00:54 15.6 °C 10.3 °C 1014.1 hPa WNW 1.6 km/h 8 km/h 71% 0 mm
00:59 15.5 °C 10.3 °C 1014.1 hPa Calm   4.8 km/h 71% 0 mm
01:04 15.4 °C 10.2 °C 1014.1 hPa WNW 1.6 km/h 4.8 km/h 71% 0 mm
01:09 15.4 °C 10.4 °C 1014.1 hPa WNW 1.6 km/h 6.4 km/h 72% 0 mm
01:14 15.4 °C 10.4 °C 1014.1 hPa West 6.4 km/h 6.4 km/h 72% 0 mm
01:19 15.4 °C 10.4 °C 1014.1 hPa WNW 1.6 km/h 9.7 km/h 72% 0 mm
01:24 15.5 °C 10.4 °C 1014.1 hPa WNW 4.8 km/h 6.4 km/h 72% 0 mm
01:29 15.6 °C 10.3 °C 1014.1 hPa Calm   6.4 km/h 71% 0 mm
01:34 15.6 °C 10.4 °C 1014.1 hPa WNW 3.2 km/h 8 km/h 71% 0 mm
01:39 15.7 °C 10.4 °C 1014.1 hPa WNW 3.2 km/h 9.7 km/h 71% 0 mm
01:44 15.7 °C 10.4 °C 1014.1 hPa WNW 3.2 km/h 9.7 km/h 71% 0 mm
01:49 15.7 °C 10.2 °C 1014.1 hPa WNW 1.6 km/h 8 km/h 70% 0 mm
01:54 15.7 °C 10.4 °C 1014.1 hPa Calm   4.8 km/h 71% 0 mm
01:59 15.7 °C 10.5 °C 1014.4 hPa Calm   9.7 km/h 71% 0 mm
02:04 15.8 °C 10.3 °C 1014.4 hPa WNW 4.8 km/h 19.3 km/h 70% 0 mm
02:09 15.8 °C 10.6 °C 1014.1 hPa WNW 3.2 km/h 4.8 km/h 71% 0 mm
02:14 15.8 °C 10.6 °C 1014.4 hPa Calm   8 km/h 71% 0 mm
02:19 15.8 °C 10.3 °C 1014.1 hPa NNW 9.7 km/h 17.7 km/h 70% 0 mm
02:24 15.7 °C 10.3 °C 1014.4 hPa NW 6.4 km/h 19.3 km/h 70% 0 mm
02:29 15.7 °C 10.1 °C 1014.4 hPa Calm   9.7 km/h 69% 0 mm
02:34 15.7 °C 10 °C 1014.4 hPa NW 3.2 km/h 9.7 km/h 69% 0 mm
02:39 15.6 °C 9.9 °C 1014.4 hPa WNW 3.2 km/h 8 km/h 69% 0 mm
02:44 15.5 °C 9.8 °C 1014.4 hPa NW 4.8 km/h 14.5 km/h 69% 0 mm
02:49 15.5 °C 9.6 °C 1014.4 hPa NW 6.4 km/h 17.7 km/h 68% 0 mm
02:54 15.5 °C 9.4 °C 1014.4 hPa NNW 6.4 km/h 17.7 km/h 67% 0 mm
02:59 15.5 °C 9.4 °C 1014.4 hPa NW 3.2 km/h 8 km/h 67% 0 mm
03:04 15.5 °C 9.4 °C 1014.4 hPa NW 3.2 km/h 11.3 km/h 67% 0 mm
03:09 15.4 °C 9.3 °C 1014.4 hPa NW 4.8 km/h 11.3 km/h 67% 0 mm
03:14 15.4 °C 9.3 °C 1014.4 hPa WNW 8 km/h 14.5 km/h 67% 0 mm
03:19 15.4 °C 9.3 °C 1014.4 hPa Calm   14.5 km/h 67% 0 mm
03:24 15.3 °C 9.2 °C 1014.4 hPa NNW 6.4 km/h 8 km/h 67% 0 mm
03:29 15.2 °C 9.3 °C 1014.8 hPa NW 8 km/h 17.7 km/h 68% 0 mm
03:34 15.2 °C 9.3 °C 1014.8 hPa NNW 4.8 km/h 17.7 km/h 68% 0 mm
03:39 15.1 °C 9.2 °C 1014.8 hPa NNW 3.2 km/h 11.3 km/h 68% 0 mm
03:44 14.9 °C 9.1 °C 1014.4 hPa NW 3.2 km/h 11.3 km/h 68% 0 mm
03:49 14.9 °C 8.9 °C 1014.8 hPa NW 3.2 km/h 14.5 km/h 67% 0 mm
03:54 14.9 °C 8.9 °C 1014.4 hPa NNW 4.8 km/h 14.5 km/h 67% 0 mm
03:59 14.9 °C 8.8 °C 1014.4 hPa NNW 4.8 km/h 12.9 km/h 67% 0 mm
04:04 14.8 °C 8.8 °C 1014.8 hPa NNW 3.2 km/h 12.9 km/h 67% 0 mm
04:09 14.8 °C 8.8 °C 1014.8 hPa NW 1.6 km/h 16.1 km/h 67% 0 mm
04:14 14.7 °C 8.7 °C 1014.4 hPa NNW 6.4 km/h 11.3 km/h 67% 0 mm
04:19 14.7 °C 8.7 °C 1014.4 hPa NW 3.2 km/h 9.7 km/h 67% 0 mm
04:24 14.6 °C 8.8 °C 1014.8 hPa NW 4.8 km/h 11.3 km/h 68% 0 mm
04:29 14.6 °C 8.7 °C 1014.8 hPa NW 3.2 km/h 11.3 km/h 68% 0 mm
04:34 14.5 °C 8.4 °C 1014.8 hPa NW 3.2 km/h 12.9 km/h 67% 0 mm
04:39 14.4 °C 8.3 °C 1014.8 hPa NW 3.2 km/h 12.9 km/h 67% 0 mm
04:44 14.3 °C 8.5 °C 1014.8 hPa NW 3.2 km/h 11.3 km/h 68% 0 mm
04:49 14.2 °C 8.4 °C 1015.1 hPa NW 3.2 km/h 11.3 km/h 68% 0 mm
04:54 14.1 °C 8.3 °C 1015.1 hPa NW 3.2 km/h 11.3 km/h 68% 0 mm
04:59 13.9 °C 8.1 °C 1015.1 hPa NW 3.2 km/h 11.3 km/h 68% 0 mm
05:04 13.7 °C 8.1 °C 1015.1 hPa Calm   11.3 km/h 69% 0 mm
05:09 13.5 °C 7.9 °C 1015.1 hPa WNW 1.6 km/h 6.4 km/h 69% 0 mm
05:14 13.3 °C 8 °C 1015.1 hPa NNW 3.2 km/h 6.4 km/h 70% 0 mm
05:19 13.2 °C 7.9 °C 1015.1 hPa Calm   6.4 km/h 70% 0 mm
05:24 13.2 °C 7.8 °C 1015.1 hPa NW 3.2 km/h 4.8 km/h 70% 0 mm
05:29 13 °C 7.9 °C 1015.1 hPa NW 3.2 km/h 6.4 km/h 71% 0 mm
05:34 12.9 °C 7.8 °C 1015.1 hPa NW 1.6 km/h 6.4 km/h 71% 0 mm
05:39 12.8 °C 7.8 °C 1015.1 hPa NW 1.6 km/h 6.4 km/h 72% 0 mm
05:44 12.7 °C 8 °C 1015.5 hPa NW 1.6 km/h 9.7 km/h 73% 0 mm
05:54 12.9 °C 7.9 °C 1015.1 hPa WNW 1.6 km/h 8 km/h 72% 0 mm
05:59 12.9 °C 7.9 °C 1015.1 hPa West 1.6 km/h 6.4 km/h 72% 0 mm
06:04 12.9 °C 7.9 °C 1015.1 hPa WNW 1.6 km/h 6.4 km/h 72% 0 mm
06:09 12.8 °C 7.9 °C 1015.1 hPa Calm   4.8 km/h 72% 0 mm
06:14 12.8 °C 8.1 °C 1015.1 hPa WNW 3.2 km/h 3.2 km/h 73% 0 mm
06:19 12.8 °C 8.1 °C 1015.5 hPa WNW 1.6 km/h 6.4 km/h 73% 0 mm
06:24 12.9 °C 8 °C 1015.5 hPa WNW 3.2 km/h 6.4 km/h 72% 0 mm
06:29 13 °C 8.1 °C 1015.5 hPa WNW 3.2 km/h 6.4 km/h 72% 0 mm
06:34 13 °C 8.1 °C 1015.5 hPa WNW 1.6 km/h 6.4 km/h 72% 0 mm
06:44 13.1 °C 8.1 °C 1015.5 hPa WNW 3.2 km/h 8 km/h 72% 0 mm
06:54 13.1 °C 8.2 °C 1015.5 hPa WNW 3.2 km/h 6.4 km/h 72% 0 mm
06:59 13.2 °C 8.3 °C 1015.5 hPa North 4.8 km/h 6.4 km/h 72% 0 mm
07:04 13.3 °C 8.4 °C 1015.5 hPa NW 3.2 km/h 8 km/h 72% 0 mm
07:09 13.4 °C 8.4 °C 1015.8 hPa NW 3.2 km/h 8 km/h 72% 0 mm
07:14 13.4 °C 8.4 °C 1015.8 hPa WNW 1.6 km/h 8 km/h 72% 0 mm
07:19 13.4 °C 8.4 °C 1015.8 hPa NW 4.8 km/h 12.9 km/h 72% 0 mm
07:24 13.4 °C 8.4 °C 1015.8 hPa WNW 3.2 km/h 9.7 km/h 72% 0 mm
07:29 13.4 °C 8.4 °C 1015.8 hPa WNW 3.2 km/h 6.4 km/h 72% 0 mm
07:34 13.4 °C 8.7 °C 1015.8 hPa WNW 3.2 km/h 6.4 km/h 73% 0 mm
07:39 13.6 °C 8.7 °C 1015.8 hPa NNW 1.6 km/h 9.7 km/h 72% 0 mm
07:44 13.8 °C 8.8 °C 1015.8 hPa WNW 6.4 km/h 11.3 km/h 72% 0 mm
07:49 13.8 °C 8.7 °C 1016.1 hPa NNW 1.6 km/h 8 km/h 71% 0 mm
07:54 13.9 °C 8.5 °C 1016.1 hPa WNW 9.7 km/h 12.9 km/h 70% 0 mm
07:59 13.9 °C 8.6 °C 1016.1 hPa NW 3.2 km/h 14.5 km/h 70% 0 mm
08:04 14.1 °C 8.7 °C 1016.1 hPa NW 4.8 km/h 14.5 km/h 70% 0 mm
08:09 14.2 °C 9 °C 1016.1 hPa NW 4.8 km/h 11.3 km/h 71% 0 mm
08:14 14.2 °C 8.8 °C 1016.1 hPa WNW 3.2 km/h 9.7 km/h 70% 0 mm
08:19 14.2 °C 8.8 °C 1016.1 hPa WNW 3.2 km/h 11.3 km/h 70% 0 mm
08:24 14.2 °C 8.8 °C 1016.1 hPa WNW 4.8 km/h 11.3 km/h 70% 0 mm
08:29 14.2 °C 8.8 °C 1016.1 hPa NW 3.2 km/h 11.3 km/h 70% 0 mm
08:34 14.3 °C 9.1 °C 1016.1 hPa NW 4.8 km/h 12.9 km/h 71% 0 mm
08:39 14.4 °C 9.2 °C 1016.1 hPa Calm   11.3 km/h 71% 0 mm
08:44 14.4 °C 9.2 °C 1016.1 hPa WNW 8 km/h 14.5 km/h 71% 0 mm
08:49 14.5 °C 9.3 °C 1016.5 hPa NNW 6.4 km/h 12.9 km/h 71% 0 mm
08:54 14.8 °C 9.6 °C 1016.5 hPa North 1.6 km/h 8 km/h 71% 0 mm
08:59 14.9 °C 9.4 °C 1016.5 hPa NW 1.6 km/h 12.9 km/h 70% 0 mm
09:04 14.7 °C 9.1 °C 1016.5 hPa WNW 4.8 km/h 14.5 km/h 69% 0 mm
09:09 14.8 °C 9.3 °C 1016.5 hPa WNW 4.8 km/h 14.5 km/h 70% 0 mm
09:14 14.8 °C 9.2 °C 1016.5 hPa NNE 9.7 km/h 16.1 km/h 69% 0 mm
09:19 14.6 °C 9.2 °C 1016.5 hPa WNW 1.6 km/h 11.3 km/h 70% 0 mm
09:24 14.8 °C 9.2 °C 1016.5 hPa WNW 4.8 km/h 14.5 km/h 69% 0 mm
09:29 15 °C 9.3 °C 1016.5 hPa WNW 4.8 km/h 14.5 km/h 69% 0 mm
09:34 15.6 °C 9.3 °C 1016.5 hPa WNW 6.4 km/h 14.5 km/h 66% 0 mm
09:39 16.1 °C 8.8 °C 1016.5 hPa WNW 8 km/h 16.1 km/h 62% 0 mm
09:44 15.6 °C 8.8 °C 1016.5 hPa WNW 8 km/h 16.1 km/h 64% 0 mm
09:49 15.2 °C 8.8 °C 1016.5 hPa NNW 1.6 km/h 16.1 km/h 66% 0 mm
09:54 15.2 °C 8.9 °C 1016.5 hPa WNW 6.4 km/h 9.7 km/h 66% 0 mm
09:59 15.9 °C 9.1 °C 1016.8 hPa NW 4.8 km/h 14.5 km/h 64% 0 mm
10:04 15.7 °C 8.4 °C 1016.8 hPa NNW 4.8 km/h 14.5 km/h 62% 0 mm
10:09 15.7 °C 8 °C 1016.8 hPa NW 4.8 km/h 14.5 km/h 60% 0 mm
10:14 15.5 °C 8.2 °C 1016.8 hPa NNW 6.4 km/h 12.9 km/h 62% 0 mm
10:19 15.2 °C 8.2 °C 1016.8 hPa North 4.8 km/h 11.3 km/h 63% 0 mm
10:24 15.1 °C 8.3 °C 1017.2 hPa North 1.6 km/h 9.7 km/h 64% 0 mm
10:29 15.1 °C 8.3 °C 1017.2 hPa North 3.2 km/h 11.3 km/h 64% 0 mm
10:34 15.2 °C 8.4 °C 1016.8 hPa NNW 3.2 km/h 11.3 km/h 64% 0 mm
10:39 15.4 °C 8.4 °C 1016.8 hPa NNW 3.2 km/h 9.7 km/h 63% 0 mm
10:44 15.6 °C 8.8 °C 1016.8 hPa NNW 3.2 km/h 11.3 km/h 64% 0 mm
10:49 15.4 °C 8.9 °C 1016.8 hPa NNW 4.8 km/h 11.3 km/h 65% 0 mm
10:54 15.4 °C 8.9 °C 1016.8 hPa North 8 km/h 8 km/h 65% 0 mm
10:59 15.5 °C 9.2 °C 1016.8 hPa NNE 3.2 km/h 9.7 km/h 66% 0 mm
11:04 15.7 °C 8.9 °C 1016.8 hPa NNW 8 km/h 14.5 km/h 64% 0 mm
11:09 15.7 °C 8.4 °C 1017.2 hPa North 4.8 km/h 12.9 km/h 62% 0 mm
11:14 15.5 °C 8.7 °C 1017.2 hPa NNW 1.6 km/h 11.3 km/h 64% 0 mm
11:19 15.6 °C 8.6 °C 1017.2 hPa North 4.8 km/h 14.5 km/h 63% 0 mm
11:24 15.5 °C 8.7 °C 1017.2 hPa North 6.4 km/h 11.3 km/h 64% 0 mm
11:29 15.6 °C 8.8 °C 1016.8 hPa North 4.8 km/h 12.9 km/h 64% 0 mm
11:34 15.8 °C 8.6 °C 1016.8 hPa NNW 4.8 km/h 12.9 km/h 62% 0 mm
11:39 15.8 °C 8.3 °C 1017.2 hPa NNW 4.8 km/h 12.9 km/h 61% 0 mm
11:44 15.8 °C 8.7 °C 1016.8 hPa NNW 4.8 km/h 12.9 km/h 63% 0 mm
11:49 16.1 °C 8.8 °C 1017.2 hPa WNW 1.6 km/h 11.3 km/h 62% 0 mm
11:54 16.1 °C 8.8 °C 1017.2 hPa North 1.6 km/h 14.5 km/h 62% 0 mm
11:59 16.1 °C 8.6 °C 1016.8 hPa NNW 4.8 km/h 14.5 km/h 61% 0 mm
12:04 16.2 °C 8.4 °C 1016.8 hPa NNW 3.2 km/h 12.9 km/h 60% 0 mm
12:09 16.1 °C 8.1 °C 1016.8 hPa NW 4.8 km/h 12.9 km/h 59% 0 mm
12:14 16.2 °C 8.6 °C 1017.2 hPa NW 9.7 km/h 12.9 km/h 61% 0 mm
12:19 15.9 °C 8.2 °C 1016.8 hPa NW 3.2 km/h 11.3 km/h 60% 0 mm
12:24 15.7 °C 8.4 °C 1016.8 hPa NW 8 km/h 14.5 km/h 62% 0 mm
12:29 15.7 °C 8.7 °C 1016.8 hPa WNW 6.4 km/h 16.1 km/h 63% 0 mm
12:34 16 °C 9.2 °C 1017.2 hPa WNW 6.4 km/h 16.1 km/h 64% 0 mm
12:39 16 °C 8.5 °C 1016.8 hPa NW 3.2 km/h 11.3 km/h 61% 0 mm
12:44 16.1 °C 9 °C 1017.2 hPa West 1.6 km/h 11.3 km/h 63% 0 mm
12:49 15.9 °C 8.7 °C 1017.2 hPa North 11.3 km/h 12.9 km/h 62% 0 mm
12:54 15.9 °C 8.7 °C 1017.2 hPa NNW 3.2 km/h 16.1 km/h 62% 0 mm
12:59 15.9 °C 8.6 °C 1017.2 hPa NNW 6.4 km/h 16.1 km/h 62% 0 mm
13:04 15.9 °C 8.7 °C 1017.2 hPa NNW 4.8 km/h 12.9 km/h 62% 0 mm
13:09 15.9 °C 8.4 °C 1016.8 hPa NW 4.8 km/h 12.9 km/h 61% 0 mm
13:14 15.9 °C 8.6 °C 1017.2 hPa NW 6.4 km/h 12.9 km/h 62% 0 mm
13:19 15.6 °C 8.6 °C 1017.2 hPa NW 8 km/h 16.1 km/h 63% 0 mm
13:24 15.5 °C 8.5 °C 1016.8 hPa WNW 6.4 km/h 16.1 km/h 63% 0 mm
13:29 15.3 °C 8.3 °C 1016.8 hPa NW 6.4 km/h 16.1 km/h 63% 0 mm
13:34 15.4 °C 8.7 °C 1016.8 hPa NW 6.4 km/h 14.5 km/h 64% 0 mm
13:39 15.4 °C 8.4 °C 1016.8 hPa West 4.8 km/h 16.1 km/h 63% 0 mm
13:44 15.4 °C 8.4 °C 1017.2 hPa NNW 11.3 km/h 16.1 km/h 63% 0 mm
13:49 15.1 °C 8.6 °C 1016.8 hPa WNW 3.2 km/h 12.9 km/h 65% 0 mm
13:54 15.1 °C 8.5 °C 1016.8 hPa WNW 3.2 km/h 11.3 km/h 65% 0 mm
13:59 14.9 °C 8.1 °C 1016.8 hPa NW 4.8 km/h 16.1 km/h 64% 0 mm
14:04 14.8 °C 8.3 °C 1016.8 hPa NW 6.4 km/h 16.1 km/h 65% 0 mm
14:09 14.9 °C 8.2 °C 1016.8 hPa NW 4.8 km/h 12.9 km/h 64% 0 mm
14:14 15 °C 8.4 °C 1016.8 hPa NW 3.2 km/h 11.3 km/h 65% 0 mm
14:19 15 °C 8 °C 1016.8 hPa NW 6.4 km/h 14.5 km/h 63% 0 mm
14:24 14.9 °C 7.9 °C 1016.8 hPa WNW 4.8 km/h 16.1 km/h 63% 0 mm
14:29 15.1 °C 8.1 °C 1017.2 hPa NW 6.4 km/h 16.1 km/h 63% 0 mm
14:34 15.2 °C 7.9 °C 1016.8 hPa NW 4.8 km/h 12.9 km/h 62% 0 mm
14:39 15.4 °C 8.6 °C 1016.8 hPa NW 4.8 km/h 11.3 km/h 64% 0 mm
14:44 15.3 °C 8.3 °C 1017.2 hPa Calm   17.7 km/h 63% 0 mm
14:49 15.3 °C 7.8 °C 1016.8 hPa WNW 6.4 km/h 17.7 km/h 61% 0 mm
14:54 15.2 °C 8 °C 1017.2 hPa NNW 6.4 km/h 16.1 km/h 62% 0 mm
14:59 15.1 °C 7.9 °C 1016.8 hPa NW 6.4 km/h 16.1 km/h 62% 0 mm
15:04 15.1 °C 7.9 °C 1016.8 hPa NW 6.4 km/h 14.5 km/h 62% 0 mm
15:09 15.3 °C 8.3 °C 1017.2 hPa NW 3.2 km/h 12.9 km/h 63% 0 mm
15:14 15.3 °C 8.1 °C 1017.2 hPa NW 3.2 km/h 12.9 km/h 62% 0 mm
15:19 15.4 °C 8.4 °C 1016.8 hPa Calm   12.9 km/h 63% 0 mm
15:24 15.4 °C 8.2 °C 1016.8 hPa Calm   6.4 km/h 62% 0 mm
15:29 15.5 °C 8.2 °C 1016.8 hPa WNW 6.4 km/h 8 km/h 62% 0 mm
15:34 15.5 °C 8 °C 1016.8 hPa NNW 4.8 km/h 12.9 km/h 61% 0 mm
15:39 15.6 °C 8.3 °C 1016.8 hPa NW 4.8 km/h 12.9 km/h 62% 0 mm
15:44 15.6 °C 8.1 °C 1016.8 hPa NW 4.8 km/h 17.7 km/h 61% 0 mm
15:49 15.6 °C 7.9 °C 1016.8 hPa NW 4.8 km/h 14.5 km/h 60% 0 mm
15:54 15.9 °C 8.2 °C 1016.8 hPa NW 4.8 km/h 6.4 km/h 60% 0 mm
15:59 15.8 °C 8 °C 1016.8 hPa NW 3.2 km/h 8 km/h 60% 0 mm
16:04 15.7 °C 8.2 °C 1016.8 hPa NNW 3.2 km/h 11.3 km/h 61% 0 mm
16:09 15.7 °C 7.9 °C 1016.8 hPa WNW 9.7 km/h 12.9 km/h 60% 0 mm
16:14 15.8 °C 8.3 °C 1016.8 hPa WNW 6.4 km/h 11.3 km/h 61% 0 mm
16:19 16.1 °C 8.3 °C 1016.8 hPa NNW 6.4 km/h 12.9 km/h 60% 0 mm
16:24 16 °C 8.5 °C 1016.8 hPa NW 9.7 km/h 16.1 km/h 61% 0 mm
16:29 16 °C 8.2 °C 1016.8 hPa WNW 6.4 km/h 16.1 km/h 60% 0 mm
16:34 16.6 °C 8.8 °C 1016.8 hPa WNW 6.4 km/h 14.5 km/h 60% 0 mm
16:39 16.8 °C 8 °C 1016.8 hPa NW 4.8 km/h 16.1 km/h 56% 0 mm
16:44 16.7 °C 7.6 °C 1016.8 hPa WNW 6.4 km/h 16.1 km/h 55% 0 mm
16:49 16.1 °C 7.3 °C 1016.8 hPa WNW 6.4 km/h 12.9 km/h 56% 0 mm
16:54 15.9 °C 7.1 °C 1016.8 hPa WNW 4.8 km/h 11.3 km/h 56% 0 mm
16:59 15.9 °C 7.6 °C 1016.8 hPa West 1.6 km/h 12.9 km/h 58% 0 mm
17:04 15.9 °C 7.9 °C 1016.8 hPa WNW 3.2 km/h 12.9 km/h 59% 0 mm
17:09 15.9 °C 7.7 °C 1016.8 hPa West 1.6 km/h 9.7 km/h 58% 0 mm
17:14 16 °C 8 °C 1016.8 hPa WNW 4.8 km/h 9.7 km/h 59% 0 mm
17:19 16.2 °C 7.6 °C 1016.8 hPa WNW 4.8 km/h 8 km/h 57% 0 mm
17:24 16.3 °C 7.7 °C 1016.8 hPa West 3.2 km/h 12.9 km/h 57% 0 mm
17:29 16.2 °C 7.9 °C 1016.8 hPa West 4.8 km/h 6.4 km/h 58% 0 mm
17:34 15.9 °C 7.7 °C 1016.8 hPa West 4.8 km/h 11.3 km/h 58% 0 mm
17:39 15.9 °C 7.9 °C 1016.8 hPa WSW 6.4 km/h 11.3 km/h 59% 0 mm
17:44 15.9 °C 7.6 °C 1016.8 hPa West 4.8 km/h 11.3 km/h 58% 0 mm
17:49 15.9 °C 7.9 °C 1016.8 hPa WNW 4.8 km/h 11.3 km/h 59% 0 mm
17:54 15.8 °C 7.6 °C 1016.8 hPa WNW 4.8 km/h 11.3 km/h 58% 0 mm
17:59 15.8 °C 8 °C 1016.8 hPa West 6.4 km/h 11.3 km/h 60% 0 mm
18:04 15.7 °C 7.7 °C 1016.8 hPa SW 1.6 km/h 9.7 km/h 59% 0 mm
18:09 15.7 °C 7.7 °C 1016.8 hPa West 4.8 km/h 11.3 km/h 59% 0 mm
18:19 15.6 °C 7.8 °C 1016.8 hPa WNW 3.2 km/h 8 km/h 60% 0 mm
18:24 15.5 °C 7.8 °C 1016.8 hPa West 1.6 km/h 8 km/h 60% 0 mm
18:29 15.5 °C 7.8 °C 1016.8 hPa WSW 1.6 km/h 6.4 km/h 60% 0 mm
18:34 15.4 °C 7.7 °C 1016.8 hPa WSW 1.6 km/h 6.4 km/h 60% 0 mm
18:39 15.4 °C 7.7 °C 1016.8 hPa WSW 3.2 km/h 9.7 km/h 60% 0 mm
18:44 15.3 °C 7.6 °C 1016.8 hPa West 3.2 km/h 9.7 km/h 60% 0 mm
18:49 15.3 °C 7.6 °C 1016.8 hPa WSW 3.2 km/h 6.4 km/h 60% 0 mm
18:54 15.3 °C 7.6 °C 1016.8 hPa Calm   6.4 km/h 60% 0 mm
18:59 15.3 °C 7.8 °C 1016.8 hPa West 6.4 km/h 8 km/h 61% 0 mm
19:04 15.3 °C 7.8 °C 1016.8 hPa WSW 3.2 km/h 9.7 km/h 61% 0 mm
19:09 15.2 °C 7.5 °C 1016.8 hPa WSW 3.2 km/h 9.7 km/h 60% 0 mm
19:14 15.2 °C 7.7 °C 1016.8 hPa West 3.2 km/h 6.4 km/h 61% 0 mm
19:19 15.2 °C 7.7 °C 1016.8 hPa WNW 1.6 km/h 8 km/h 61% 0 mm
19:24 15.1 °C 7.9 °C 1016.8 hPa WNW 3.2 km/h 6.4 km/h 62% 0 mm
19:29 15.2 °C 7.9 °C 1016.8 hPa West 1.6 km/h 6.4 km/h 62% 0 mm
19:34 15.2 °C 7.9 °C 1016.8 hPa West 4.8 km/h 4.8 km/h 62% 0 mm
19:39 15.2 °C 7.9 °C 1016.8 hPa Calm   4.8 km/h 62% 0 mm
19:44 15.1 °C 7.9 °C 1017.2 hPa Calm   4.8 km/h 62% 0 mm
19:49 15.1 °C 7.9 °C 1017.2 hPa Calm   4.8 km/h 62% 0 mm
19:54 15.1 °C 7.8 °C 1017.2 hPa Calm   4.8 km/h 62% 0 mm
19:59 15.1 °C 8.1 °C 1017.2 hPa Calm     63% 0 mm
20:04 15.1 °C 8.1 °C 1017.2 hPa Calm   4.8 km/h 63% 0 mm
20:09 15.1 °C 8.1 °C 1017.2 hPa Calm   4.8 km/h 63% 0 mm
20:14 15.1 °C 8.1 °C 1017.2 hPa Calm     63% 0 mm
20:19 14.9 °C 7.9 °C 1017.2 hPa Calm     63% 0 mm
20:24 14.9 °C 7.9 °C 1017.2 hPa Calm     63% 0 mm
20:29 14.9 °C 7.9 °C 1017.2 hPa Calm     63% 0 mm
20:34 15 °C 8 °C 1017.2 hPa West 1.6 km/h 4.8 km/h 63% 0 mm
20:39 15.1 °C 8.1 °C 1017.2 hPa Calm   4.8 km/h 63% 0 mm
20:44 15.1 °C 8.1 °C 1017.5 hPa Calm   4.8 km/h 63% 0 mm
20:49 15 °C 8 °C 1017.5 hPa Calm   4.8 km/h 63% 0 mm
20:54 14.9 °C 8.2 °C 1017.5 hPa Calm     64% 0 mm
20:59 14.9 °C 8.2 °C 1017.5 hPa ENE 6.4 km/h 8 km/h 64% 0 mm
21:04 14.9 °C 8.1 °C 1017.5 hPa Calm   11.3 km/h 64% 0 mm
21:09 14.8 °C 8.3 °C 1017.5 hPa NE 1.6 km/h 11.3 km/h 65% 0 mm
21:14 14.7 °C 8.2 °C 1017.5 hPa ENE 1.6 km/h 4.8 km/h 65% 0 mm
21:19 14.6 °C 8.3 °C 1017.8 hPa Calm   4.8 km/h 66% 0 mm
21:24 14.6 °C 8.3 °C 1017.8 hPa Calm   6.4 km/h 66% 0 mm
21:29 14.6 °C 8.1 °C 1017.8 hPa NE 1.6 km/h 6.4 km/h 65% 0 mm
21:34 14.6 °C 8.1 °C 1017.8 hPa North 3.2 km/h 6.4 km/h 65% 0 mm
21:39 14.5 °C 8 °C 1017.8 hPa Calm   3.2 km/h 65% 0 mm
21:44 14.4 °C 7.9 °C 1017.8 hPa Calm     65% 0 mm
21:49 14.4 °C 7.7 °C 1017.8 hPa Calm   3.2 km/h 64% 0 mm
21:54 14.4 °C 7.9 °C 1017.8 hPa North 3.2 km/h 3.2 km/h 65% 0 mm
21:59 14.3 °C 7.8 °C 1017.8 hPa North 1.6 km/h 3.2 km/h 65% 0 mm
22:04 14.3 °C 7.8 °C 1017.8 hPa Calm   3.2 km/h 65% 0 mm
22:09 14.3 °C 7.8 °C 1017.8 hPa Calm   4.8 km/h 65% 0 mm
22:14 14.3 °C 7.8 °C 1017.8 hPa Calm   4.8 km/h 65% 0 mm
22:19 14.2 °C 7.7 °C 1017.8 hPa Calm   8 km/h 65% 0 mm
22:24 14.2 °C 7.7 °C 1017.8 hPa North 1.6 km/h 8 km/h 65% 0 mm
22:29 14.1 °C 7.8 °C 1017.8 hPa NNW 3.2 km/h 6.4 km/h 66% 0 mm
22:34 13.9 °C 7.7 °C 1017.8 hPa North 1.6 km/h 8 km/h 66% 0 mm
22:39 13.8 °C 7.6 °C 1017.8 hPa NNE 3.2 km/h 8 km/h 66% 0 mm
22:44 13.6 °C 7.4 °C 1017.8 hPa North 3.2 km/h 4.8 km/h 66% 0 mm
22:49 13.4 °C 7.4 °C 1017.8 hPa North 1.6 km/h 6.4 km/h 67% 0 mm
22:54 13.4 °C 7.6 °C 1017.8 hPa Calm   6.4 km/h 68% 0 mm
22:59 13.3 °C 7.6 °C 1017.8 hPa Calm   8 km/h 68% 0 mm
23:04 13.3 °C 7.5 °C 1018.2 hPa NNW 1.6 km/h 8 km/h 68% 0 mm
23:09 13.2 °C 7.4 °C 1018.2 hPa NNW 1.6 km/h 8 km/h 68% 0 mm
23:15 13 °C 7.2 °C 1018.2 hPa NNW 1.6 km/h 8 km/h 68% 0 mm
23:24 12.6 °C 7.1 °C 1018.2 hPa NNW 1.6 km/h 6.4 km/h 69% 0 mm
23:29 12.4 °C 7.1 °C 1018.2 hPa Calm   4.8 km/h 70% 0 mm
23:34 12.1 °C 7 °C 1018.5 hPa Calm   3.2 km/h 71% 0 mm
23:39 11.9 °C 7 °C 1018.2 hPa Calm     72% 0 mm
23:44 11.6 °C 6.7 °C 1018.2 hPa Calm     72% 0 mm
23:49 11.3 °C 6.7 °C 1018.2 hPa Calm     73% 0 mm
23:54 11.1 °C 6.7 °C 1018.2 hPa Calm     74% 0 mm
23:59 10.9 °C 6.6 °C 1018.2 hPa Calm     75% 0 mm
Buffalo, New York, USA
Compliments of Weather Underground - 2.5 mb